When you browse on this site, cookies collect data to enhance your experience and personalize the content and advertising you see.
Visit our Privacy Policy to learn more. By continuing to use the site, you agree to this use of cookies and data.
  • In United Kingdom
  • List of Countries
  • For 7 days
  • Water Temperature
  • Weather Map
  • Weather Widgets
  • user-avatar
    Login

    Hourly Weather Nesebyr

    Today, 17 September, Tuesday

    Time Temperature Precipitation Wind Pressure Humidity
    00:00 +19°C° 0 mm 1 mps 759 mmHg 58%
    01:00 +19°C° 0 mm 1 mps 759 mmHg 58%
    02:00 +17°C° 0 mm 2 mps 759 mmHg 57%
    03:00 +17°C° 0 mm 2 mps 758 mmHg 57%
    04:00 +17°C° 0 mm 2 mps 758 mmHg 57%
    05:00 +17°C° 0 mm 2 mps 758 mmHg 57%
    06:00 +20°C° 0 mm 2 mps 758 mmHg 51%
    07:00 +22°C° 0 mm 3 mps 758 mmHg 45%
    08:00 +25°C° 0 mm 3 mps 758 mmHg 39%
    09:00 +28°C° 0 mm 3 mps 758 mmHg 33%
    10:00 +30°C° 0 mm 3 mps 758 mmHg 27%
    11:00 +33°C° 0 mm 3 mps 758 mmHg 22%
    12:00 +34°C° 0 mm 3 mps 758 mmHg 20%
    13:00 +35°C° 0 mm 4 mps 757 mmHg 18%
    14:00 +36°C° 0 mm 4 mps 757 mmHg 16%
    15:00 +36°C° 0 mm 4 mps 756 mmHg 18%
    16:00 +35°C° 0 mm 3 mps 756 mmHg 19%
    17:00 +34°C° 0 mm 3 mps 756 mmHg 20%
    18:00 +31°C° 0 mm 3 mps 756 mmHg 24%
    19:00 +28°C° 0 mm 2 mps 757 mmHg 28%
    20:00 +25°C° 0 mm 2 mps 757 mmHg 32%
    21:00 +25°C° 0 mm 2 mps 757 mmHg 35%
    22:00 +24°C° 0 mm 2 mps 757 mmHg 38%
    23:00 +24°C° 0 mm 2 mps 757 mmHg 42%

    Tomorrow, 18 September, Wednesday

    Time Temperature Precipitation Wind Pressure Humidity
    00:00 +24°C° 0 mm 2 mps 757 mmHg 42%
    01:00 +23°C° 0 mm 2 mps 757 mmHg 42%
    02:00 +23°C° 0 mm 2 mps 757 mmHg 43%
    03:00 +21°C° 0 mm 2 mps 757 mmHg 45%
    04:00 +21°C° 0 mm 2 mps 756 mmHg 47%
    05:00 +20°C° 0 mm 2 mps 756 mmHg 50%
    06:00 +22°C° 0 mm 3 mps 756 mmHg 46%
    07:00 +25°C° 0 mm 3 mps 756 mmHg 43%
    08:00 +27°C° 0 mm 3 mps 757 mmHg 40%
    09:00 +29°C° 0 mm 3 mps 757 mmHg 34%
    10:00 +33°C° 0 mm 4 mps 757 mmHg 28%
    11:00 +36°C° 0 mm 4 mps 757 mmHg 22%
    12:00 +36°C° 0 mm 4 mps 756 mmHg 19%
    13:00 +37°C° 0 mm 4 mps 756 mmHg 17%
    14:00 +38°C° 0 mm 4 mps 756 mmHg 15%
    15:00 +34°C° 0 mm 6 mps 757 mmHg 29%
    16:00 +29°C° 0 mm 7 mps 757 mmHg 44%
    17:00 +24°C° 0 mm 9 mps 757 mmHg 58%
    18:00 +23°C° 0 mm 8 mps 759 mmHg 65%
    19:00 +21°C° 0 mm 7 mps 760 mmHg 71%
    20:00 +20°C° 0 mm 6 mps 761 mmHg 78%
    21:00 +19°C° 0 mm 5 mps 761 mmHg 78%
    22:00 +19°C° 0 mm 5 mps 762 mmHg 77%
    23:00 +19°C° 0 mm 4 mps 762 mmHg 76%

    Day after tomorrow, 19 September, Thursday

    Time Temperature Precipitation Wind Pressure Humidity
    00:00 +18°C° 0 mm 4 mps 762 mmHg 75%
    01:00 +18°C° 0 mm 3 mps 763 mmHg 74%
    02:00 +18°C° 0 mm 3 mps 763 mmHg 73%
    03:00 +18°C° 0 mm 3 mps 763 mmHg 70%
    04:00 +18°C° 0 mm 3 mps 763 mmHg 67%
    05:00 +18°C° 0 mm 3 mps 763 mmHg 65%
    06:00 +19°C° 0 mm 4 mps 763 mmHg 62%
    07:00 +20°C° 0 mm 4 mps 763 mmHg 60%
    08:00 +21°C° 0 mm 4 mps 763 mmHg 58%
    09:00 +21°C° 0 mm 5 mps 763 mmHg 55%
    10:00 +22°C° 0 mm 5 mps 763 mmHg 53%
    11:00 +23°C° 0 mm 5 mps 763 mmHg 50%
    12:00 +23°C° 0 mm 6 mps 763 mmHg 51%
    13:00 +23°C° 0 mm 6 mps 762 mmHg 51%
    14:00 +24°C° 0 mm 6 mps 762 mmHg 52%
    15:00 +23°C° 0 mm 6 mps 762 mmHg 56%
    16:00 +22°C° 0 mm 6 mps 762 mmHg 59%
    17:00 +21°C° 0 mm 5 mps 762 mmHg 63%
    18:00 +20°C° 0 mm 5 mps 762 mmHg 68%
    19:00 +19°C° 0 mm 4 mps 762 mmHg 72%
    20:00 +18°C° 0 mm 4 mps 763 mmHg 77%
    21:00 +17°C° 0 mm 3 mps 763 mmHg 77%
    22:00 +17°C° 0 mm 3 mps 763 mmHg 78%
    23:00 +17°C° 0 mm 3 mps 763 mmHg 78%

    20 September, Friday

    Time Temperature Precipitation Wind Pressure Humidity
    00:00 +16°C° 0.2 mm 3 mps 763 mmHg 81%
    01:00 +15°C° 0.2 mm 4 mps 763 mmHg 84%
    02:00 +14°C° 0.2 mm 4 mps 763 mmHg 86%
    03:00 +14°C° 0.5 mm 4 mps 763 mmHg 87%
    04:00 +13°C° 0.5 mm 3 mps 763 mmHg 87%
    05:00 +12°C° 0.5 mm 3 mps 763 mmHg 88%
    06:00 +13°C° 0.3 mm 3 mps 763 mmHg 84%
    07:00 +13°C° 0.3 mm 3 mps 763 mmHg 81%
    08:00 +13°C° 0.3 mm 4 mps 763 mmHg 78%
    09:00 +15°C° 0 mm 4 mps 764 mmHg 66%
    10:00 +18°C° 0 mm 4 mps 764 mmHg 54%
    11:00 +20°C° 0 mm 5 mps 764 mmHg 43%
    12:00 +21°C° 0 mm 5 mps 763 mmHg 37%
    13:00 +22°C° 0 mm 5 mps 763 mmHg 31%
    14:00 +25°C° 0 mm 5 mps 763 mmHg 26%
    15:00 +23°C° 0 mm 4 mps 763 mmHg 27%
    16:00 +22°C° 0 mm 4 mps 763 mmHg 28%
    17:00 +22°C° 0 mm 4 mps 763 mmHg 30%
    18:00 +20°C° 0 mm 3 mps 763 mmHg 39%
    19:00 +17°C° 0 mm 3 mps 764 mmHg 47%
    20:00 +14°C° 0 mm 3 mps 764 mmHg 56%
    21:00 +15°C° 0 mm 2 mps 765 mmHg 57%
    22:00 +14°C° 0 mm 2 mps 765 mmHg 57%
    23:00 +14°C° 0 mm 1 mps 765 mmHg 58%

    21 September, Saturday

    Time Temperature Precipitation Wind Pressure Humidity
    00:00 +13°C° 0 mm 1 mps 765 mmHg 58%
    01:00 +13°C° 0 mm 2 mps 766 mmHg 58%
    02:00 +12°C° 0 mm 2 mps 766 mmHg 58%
    03:00 +12°C° 0 mm 2 mps 766 mmHg 57%
    04:00 +12°C° 0 mm 2 mps 766 mmHg 57%
    05:00 +10°C° 0 mm 2 mps 766 mmHg 56%
    06:00 +12°C° 0 mm 3 mps 767 mmHg 52%
    07:00 +13°C° 0 mm 4 mps 767 mmHg 47%
    08:00 +15°C° 0 mm 4 mps 767 mmHg 42%
    09:00 +16°C° 0 mm 5 mps 767 mmHg 40%
    10:00 +19°C° 0 mm 5 mps 768 mmHg 37%
    11:00 +20°C° 0 mm 5 mps 768 mmHg 34%
    12:00 +21°C° 0 mm 5 mps 768 mmHg 32%
    13:00 +21°C° 0 mm 5 mps 767 mmHg 30%
    14:00 +21°C° 0 mm 5 mps 767 mmHg 28%
    15:00 +20°C° 0 mm 5 mps 767 mmHg 30%
    16:00 +20°C° 0 mm 5 mps 767 mmHg 32%
    17:00 +19°C° 0 mm 5 mps 767 mmHg 34%
    18:00 +17°C° 0 mm 4 mps 768 mmHg 42%
    19:00 +14°C° 0 mm 4 mps 768 mmHg 50%
    20:00 +12°C° 0 mm 3 mps 769 mmHg 58%
    21:00 +12°C° 0 mm 3 mps 769 mmHg 59%
    22:00 +12°C° 0 mm 3 mps 769 mmHg 59%
    23:00 +11°C° 0 mm 3 mps 769 mmHg 60%

    22 September, Sunday

    Time Temperature Precipitation Wind Pressure Humidity
    00:00 +12°C° 0 mm 2 mps 769 mmHg 60%
    01:00 +12°C° 0 mm 2 mps 769 mmHg 60%
    02:00 +12°C° 0 mm 2 mps 769 mmHg 61%
    03:00 +10°C° 0 mm 2 mps 769 mmHg 62%
    04:00 +10°C° 0 mm 2 mps 769 mmHg 63%
    05:00 +9°C° 0 mm 2 mps 769 mmHg 64%
    06:00 +12°C° 0 mm 2 mps 769 mmHg 57%
    07:00 +14°C° 0 mm 2 mps 769 mmHg 50%
    08:00 +16°C° 0 mm 2 mps 769 mmHg 43%
    09:00 +17°C° 0 mm 3 mps 769 mmHg 40%
    10:00 +19°C° 0 mm 4 mps 769 mmHg 36%
    11:00 +21°C° 0 mm 5 mps 770 mmHg 33%
    12:00 +21°C° 0 mm 5 mps 769 mmHg 32%
    13:00 +22°C° 0 mm 5 mps 768 mmHg 32%
    14:00 +22°C° 0 mm 5 mps 768 mmHg 32%
    15:00 +21°C° 0 mm 5 mps 768 mmHg 34%
    16:00 +20°C° 0 mm 5 mps 768 mmHg 37%
    17:00 +20°C° 0 mm 5 mps 767 mmHg 40%
    18:00 +18°C° 0 mm 4 mps 768 mmHg 47%
    19:00 +16°C° 0 mm 3 mps 768 mmHg 55%
    20:00 +14°C° 0 mm 2 mps 768 mmHg 63%
    21:00 +14°C° 0 mm 2 mps 768 mmHg 65%
    22:00 +13°C° 0 mm 2 mps 768 mmHg 67%
    23:00 +13°C° 0 mm 1 mps 768 mmHg 69%
    Show more